Zurück zum Katalog

STARLINK-35116

AktivKommunikationVLEO
NORAD 66078·PAYLOAD·🇺🇸 United States

Gestartet Oct 19, 2025 von Cape Canaveral Space Force Station

Loading…

Nächste Überflüge (nächste 24 Stunden)

TLE

AktuellSource: CelesTrak SupGP

Epoche: Sep 14, 2026, 15:47 UTC

1 66078C 25235W   26257.65812500 -.00034067  00000+0 -10066-2 0  2576
2 66078  53.1567  85.0074 0001249  93.8726  95.7859 15.34406892    17

Verfolge STARLINK-35116 in Echtzeit mit AllMySat

Download on the App Store